User: anonymous   Login
Location: Carrières
(48.9495°N, 2.0407°E)
Time: 06:43:02
(UTC+00:00)
Language:

Cosmos 540 Rocket - Orbit

View from above orbital plane
View from above orbital plane
View from above satellite
View from above satellite

Ground track
Ground track

The orbit data is extracted from the following two-line orbital elements,

1 06324U 72104B   23151.15318708  .00000278  00000-0  89065-4 0  9993
2 06324  74.0791  36.2724 0009275 329.3212  30.7401 14.43932031648995
Epoch (UTC): 31 May 2023 03:40:35
Eccentricity: 0.0009275
inclination: 74.0791°
perigee height: 739 km
apogee height: 752 km
right ascension of ascending node: 36.2724°
argument of perigee: 329.3212°
revolutions per day: 14.43932031
mean anomaly at epoch: 30.7401°
orbit number at epoch: 64899

The dashed part of the orbit path shows where the satellite is in the earth's shadow,  

DLR